sat.trackr.live / text

‹ back to catalog

STARLINK-32614

NORAD 62428 · 2024-249V

PAYLOAD ACTIVE UNKNOWN

§ Identity

Operator
Country
US
Launch date
2024-12-23
Launch site
AFETR
Launch vehicle
Mass (kg)
RCS (m²)

Purposes: comms

External: N2YO · Heavens-Above · Gunter

§ Orbital elements

Epoch: 2026-09-21T12:47:07.849536Z

Period
94.27 min
Inclination
43.0019°
Eccentricity
0.0001425
Mean motion
15.27591141 rev/d
Perigee alt
482.0 km
Apogee alt
484.0 km
Semi-major
6,861.2 km
B*
3.1391e-4
RAAN
295.9819°
Arg perigee
278.8939°
Mean anomaly
81.1751°
Rev number
9,767

§ Raw data

STARLINK-326141 62428U 24249V   26264.53272974  .00008389  00000+0  31391-3 0  99992 62428  43.0019 295.9819 0001425 278.8939  81.1751 15.27591141 97670

JSON: /api/v1/satellites/62428 · /tle

For live sub-satellite position, see the globe view (requires WebGL).

§ Visibility from observer

Set your observer location to see the next 7 days of passes ≥ 10°. The values pass through the URL so the page stays shareable.

No JS? Fill the form by hand. The geolocation button needs JavaScript.